STARLINK-30481, 57899

Orbit data source: Space-Track

STARLINK-30481, 57899 is a payload satellite owned by SpaceX/Seattle (US) in LEO that was launched on Wed, 20 Sep 2023 UTC via an FALCON 9 launch vehicle from the Air Force Eastern Test Range (AFETR). Payload-class satellites include a variety of spacecraft equipped with specific instruments for various scientific and technological missions. These include communications satellites like Starlink; space stations such as the ISS; scientific satellites like the Hubble; Earth observation satellites from companies like Planet Labs, Umbra, and HawkEye 360; GPS; miniature CubeSats for education and research; and military/defense satellites.

Loading next visibility...
Identifier
57899, 2023-146J
Orbit
LEO
Country
Flag of USUS
Related business
Manufacturer
SpaceX/Seattle
Mission
Operational Commercial Communications
Bus & Motor
STARLINK V2M, Unknown motor
Mass
730 kg wet, ~700 kg dry
Launch date (UTC)
2023-09-20 (3 years ago)
Launch vehicle
FALCON 9
Launch site
Air Force Eastern Test Range (AFETR)
Object type
Payload
Rocket body
Debris
Shape & HBR
Box + 2 Pan, 17.7 m
Radar Cross Section
33.884 m², Large (>1 m²)

Expand to show TLE details & history
Last TLE update: 2 days ago

TLE from 2 days ago
0 STARLINK-30481
1 57899U 23146J   26171.14121062 -.00000128  00000-0  48892-5 0  9996
2 57899  42.9983  95.7198 0001758 257.5118 102.5537 15.27592791152722
Epoch: 2026-06-20T03:23Z
TLE epoch observation values (Epoch: 2026-06-20T03:23:20.597Z)
Latitude
-0.00002°
Longitude
136.52386°
Altitude
483.048 km
Speed
7.626 km/s
True Right ascension
06h 22m 52s
True Declination
0° 00' 00"
Sunlit
Object was in daylight at epoch
Visualization orbit readout
Latitude
Unknown
Longitude
Unknown
Altitude
Unknown
Speed
Unknown
Apparent Right ascension
Unknown
Apparent Declination
Unknown
Sunlit
N/A
Visualization observer readout
Local Sidereal Time
21:52:25
Azimuth
Unknown
Elevation
Unknown
Doppler factor
Unknown
Orbital elements
Apogee altitude
486.163 km
Perigee altitude
483.75 km
Semi-major axis
6,863.093 km
Eccentricity
0.00018
Inclination
42.9983°
RAAN
95.7198°
Arg. of periapsis
257.5118°
True anomaly
102.57336°
Mean anomaly
102.5537°
Eccentric anomaly
102.56353°
Mean motion
3.81736 °/min
Orbital period
94.31 mins
BSTAR
0.0000048892
Loading maneuver chart data...
Computing Atmospheric mass density...
Loading historical data...
Loading historical data...
Loading historical data...
Loading historical data...
Loading historical data...
Loading historical data...
Loading historical data...

Documentation

Showing up to 5 results
|